World > North America > United States > Texas   Visit San Antonio, TX

Hourly San Antonio, TX Regional Weather

Feedback E-mail the Weather

Latest News

San Antonio, TX Weather Maps

°F °C°F °C
San Antonio Weather Map
UTC Time: 5/24/2022, 22:27
Your Time:

San Antonio, TX Regional Weather

Expires:202205242300;;524325
ASUS44 KSJT 242215
RWRSJT
WEST CENTRAL TEXAS REGIONAL WEATHER ROUNDUP
NATIONAL WEATHER SERVICE SAN ANGELO TX
500 PM CDT TUE MAY 24 2022

NOTE: "FAIR" INDICATES FEW OR NO CLOUDS BELOW 12,000 FEET WITH NO
SIGNIFICANT WEATHER AND/OR OBSTRUCTIONS TO VISIBILITY.


TXZ145-158-159-173-191-192-194-205-207-220-223-242300-
CENTRAL AND SOUTH CENTRAL TEXAS
  
CITY           SKY/WX    TMP DP  RH WIND       PRES   REMARKS
AUSTIN/BERGSTM PTSUNNY   85  62  46 S16G23    29.67F                  
WACO           MOSUNNY   86  65  49 SE18      29.66F                  
HILLSBORO      MOCLDY    85  65  52 SE14G20   29.67F                  
TEMPLE         PTSUNNY   85  63  47 SE17      29.68                   
KILLEEN-GRAY   MOSUNNY   86  60  40 SE20      29.63F                  
FORT HOOD      MOSUNNY   87  60  39 S17G24    29.66F                  
GEORGETOWN     MOSUNNY   85  61  44 S15       29.69F                  
LAGO VISTA     MOCLDY    86  62  44 S7        29.72F                  
SAN MARCOS     MOSUNNY   86  65  49 SE13      29.68F                  
NEW BRAUNFELS  SUNNY     87  64  46 E8G23     29.66F                  
RANDOLPH AFB   SUNNY     87  63  44 SE12      29.64F                  
SAN ANTONIO    PTSUNNY   87  61  41 S13       29.67F                  
STINSON        PTSUNNY   88  64  44 SE6G17    29.64F                  
PLEASANTON     NOT AVBL                                               
LA GRANGE      CLOUDY    87  66  49 S10       29.68S                  
GIDDINGS       CLOUDY    83  63  51 S6        29.70F                  
$$


SKY/WX - Weather  TMP - Temperature  DP - Dew Point  RH - Humidity
WIND - Wind Direction/Speed PRES - Barometric Pressure VSB - Visibility
WCI - Wind Chill Index E13G22 Wind - East Wind 13 mph/Gusts of 22 mph

Trending Headlines

San Antonio Radar Loop



San Antonio Quick Facts


National Two Day Weather Forecast


E-mail the San Antonio Weather Forecast

Voice your opinion or tell us about page issues...